EW2748 Weather Reports


Display with metric or nautical units.
time (UTC)temp
F
wind
direction
speed
MPH
gust
MPH
rain 1hr
in
rain 24hr
in
rain mn
in
humidity
%
barometer
mb
20260510230509 79 211 0.0 1.0 0.00 0.00 0.00 49 1016.4
20260510230029 80 132 0.0 1.0 0.00 0.00 0.00 46 1016.4
20260510225506 80 127 0.0 1.0 0.00 0.00 0.00 46 1016.4
20260510225008 79 117 0.0 4.0 0.00 0.00 0.00 46 1016.3
20260510224527 80 140 2.0 5.0 0.00 0.00 0.00 47 1016.3
20260510224007 80 101 1.0 5.0 0.00 0.00 0.00 47 1016.3
20260510223509 80 91 0.0 2.0 0.00 0.00 0.00 45 1016.4
20260510223025 80 134 0.0 2.0 0.00 0.00 0.00 44 1016.4
20260510222508 80 244 0.0 0.0 0.00 0.00 0.00 45 1016.4
20260510222008 80 140 0.0 1.0 0.00 0.00 0.00 45 1016.4
20260510221527 80 140 0.0 1.0 0.00 0.00 0.00 46 1016.3
20260510221009 80 214 0.0 1.0 0.00 0.00 0.00 44 1016.4
20260510220504 80 214 0.0 1.0 0.00 0.00 0.00 43 1016.4
20260510220020 80 135 0.0 3.0 0.00 0.00 0.00 43 1016.4
20260510215511 80 135 1.0 3.0 0.00 0.00 0.00 42 1016.4
20260510215010 80 193 0.0 2.0 0.00 0.00 0.00 42 1016.4
20260510214518 81 86 0.0 3.0 0.00 0.00 0.00 44 1016.5
20260510214006 81 70 1.0 3.0 0.00 0.00 0.00 44 1016.6
20260510213517 81 247 0.0 2.0 0.00 0.00 0.00 42 1016.7
20260510213015 81 152 0.0 2.0 0.00 0.00 0.00 45 1016.7
20260510212507 81 89 0.0 3.0 0.00 0.00 0.00 45 1016.7
20260510212012 81 85 1.0 3.0 0.00 0.00 0.00 43 1016.7
20260510211527 82 114 0.0 3.0 0.00 0.00 0.00 42 1016.8
20260510211009 82 267 1.0 3.0 0.00 0.00 0.00 44 1016.8
20260510210510 82 283 1.0 3.0 0.00 0.00 0.00 43 1016.8
20260510210025 82 275 0.0 2.0 0.00 0.00 0.00 44 1016.7
20260510205510 82 96 0.0 2.0 0.00 0.00 0.00 43 1016.6
20260510205003 82 241 0.0 2.0 0.00 0.00 0.00 42 1016.6
20260510204003 82 53 0.0 2.0 0.00 0.00 0.00 45 1016.6
20260510203503 82 290 0.0 4.0 0.00 0.00 0.00 43 1016.7
20260510203006 82 285 2.0 4.0 0.00 0.00 0.00 44 1016.7
20260510202003 82 64 0.0 3.0 0.00 0.00 0.00 45 1017.0
20260510201008 82 300 1.0 3.0 0.00 0.00 0.00 44 1017.2
20260510200505 81 44 0.0 5.0 0.00 0.00 0.00 48 1017.3
20260510200015 82 251 1.0 5.0 0.00 0.00 0.00 46 1017.4
20260510195504 82 282 1.0 3.0 0.00 0.00 0.00 46 1017.4
20260510195004 82 146 0.0 4.0 0.00 0.00 0.00 47 1017.3
20260510194010 81 283 1.0 4.0 0.00 0.00 0.00 48 1017.4
20260510193503 81 269 0.0 2.0 0.00 0.00 0.00 50 1017.4
20260510192503 81 285 0.0 2.0 0.00 0.00 0.00 51 1017.5
20260510192002 82 152 0.0 3.0 0.00 0.00 0.00 46 1017.5
20260510191006 81 340 0.0 5.0 0.00 0.00 0.00 51 1017.5
20260510190504 82 288 1.0 5.0 0.00 0.00 0.00 47 1017.7
20260510190012 81 304 2.0 3.0 0.00 0.00 0.00 48 1017.7
20260510185505 81 264 0.0 4.0 0.00 0.00 0.00 51 1017.8
20260510184002 81 337 1.0 4.0 0.00 0.00 0.00 53 1017.9
20260510182502 79 98 0.0 3.0 0.00 0.00 0.00 52 1018.0
20260510182006 79 9 1.0 3.0 0.00 0.00 0.00 50 1018.0
20260510181514 78 323 0.0 2.0 0.00 0.00 0.00 56 1018.1
20260510181004 78 206 0.0 2.0 0.00 0.00 0.00 54 1018.1
20260510180504 79 129 0.0 4.0 0.00 0.00 0.00 53 1018.2
20260510180012 79 297 1.0 4.0 0.00 0.00 0.00 52 1018.3
20260510175504 79 289 1.0 4.0 0.00 0.00 0.00 56 1018.3
20260510175007 79 90 1.0 6.0 0.00 0.00 0.00 59 1018.3
20260510174510 79 290 0.0 6.0 0.00 0.00 0.00 56 1018.3
20260510173504 78 263 0.0 2.0 0.00 0.00 0.00 60 1018.4
20260510172503 76 267 0.0 3.0 0.00 0.00 0.00 63 1018.4
20260510172003 76 296 1.0 3.0 0.00 0.00 0.00 63 1018.5
20260510171513 76 252 0.0 3.0 0.00 0.00 0.00 68 1018.5
20260510171002 76 13 1.0 3.0 0.00 0.00 0.00 68 1018.4
20260510170505 75 194 0.0 2.0 0.00 0.00 0.00 69 1018.3
20260510170015 74 127 0.0 2.0 0.00 0.00 0.00 71 1018.4
20260510165504 74 262 0.0 2.0 0.00 0.00 0.00 74 1018.4
20260510165005 74 328 0.0 2.0 0.00 0.00 0.00 72 1018.5
20260510164515 74 276 0.0 2.0 0.00 0.00 0.00 75 1018.6
20260510164007 74 277 0.0 2.0 0.00 0.00 0.00 74 1018.7
20260510163014 73 141 0.0 1.0 0.00 0.00 0.00 76 1018.8
20260510162503 73 34 0.0 2.0 0.00 0.00 0.00 78 1018.7
20260510162003 73 87 0.0 3.0 0.00 0.00 0.00 79 1018.7
20260510161512 73 90 1.0 3.0 0.00 0.00 0.00 78 1018.6
20260510161006 72 202 0.0 3.0 0.00 0.00 0.00 79 1018.6
20260510160504 72 131 1.0 3.0 0.00 0.00 0.00 80 1018.6
20260510160009 71 160 0.0 0.0 0.00 0.00 0.00 81 1018.6
20260510155504 71 290 0.0 2.0 0.00 0.00 0.00 81 1018.6
20260510155010 71 290 0.0 2.0 0.00 0.00 0.00 82 1018.5
20260510154506 71 274 0.0 1.0 0.00 0.00 0.00 83 1018.4
20260510154004 71 207 0.0 1.0 0.00 0.00 0.00 84 1018.4
20260510153508 70 233 0.0 1.0 0.00 0.00 0.00 86 1018.4
20260510153014 70 233 0.0 2.0 0.00 0.00 0.00 85 1018.4
20260510152007 69 129 0.0 2.0 0.00 0.00 0.00 86 1018.4
20260510151515 69 140 0.0 2.0 0.00 0.00 0.00 87 1018.5
20260510150507 68 116 0.0 3.0 0.00 0.00 0.00 90 1018.4
20260510150016 67 131 0.0 3.0 0.00 0.00 0.00 91 1018.4
20260510145508 66 244 0.0 0.0 0.00 0.00 0.00 92 1018.4
20260510145006 66 243 0.0 0.0 0.00 0.00 0.00 93 1018.4
20260510144530 66 243 0.0 0.0 0.00 0.00 0.00 94 1018.4
20260510144010 65 134 0.0 1.0 0.00 0.00 0.00 96 1018.6
20260510143505 64 150 0.0 1.0 0.00 0.00 0.00 96 1018.6
20260510143017 64 265 0.0 1.0 0.00 0.00 0.00 97 1018.8
20260510142504 64 139 0.0 1.0 0.00 0.00 0.00 97 1018.6
20260510142006 64 133 0.0 1.0 0.00 0.00 0.00 97 1018.5
20260510141518 63 156 0.0 1.0 0.00 0.00 0.00 97 1018.5
20260510140504 63 94 0.0 1.0 0.00 0.00 0.00 98 1018.8
20260510140015 63 94 0.0 1.0 0.00 0.00 0.00 97 1018.7
20260510135510 62 117 0.0 0.0 0.00 0.00 0.00 97 1018.7
20260510135006 62 134 0.0 1.0 0.00 0.00 0.00 97 1018.6
20260510134517 62 134 0.0 1.0 0.00 0.00 0.00 97 1018.5
20260510134008 62 135 0.0 1.0 0.00 0.00 0.00 97 1018.4
20260510133509 62 136 0.0 1.0 0.00 0.00 0.00 97 1018.4
20260510133026 62 131 0.0 0.0 0.00 0.00 0.00 97 1018.4
20260510132506 62 130 0.0 0.0 0.00 0.00 0.00 97 1018.3
20260510132005 62 179 0.0 0.0 0.00 0.00 0.00 98 1018.4
20260510131518 62 134 0.0 1.0 0.00 0.00 0.00 98 1018.2
20260510131007 62 137 0.0 1.0 0.00 0.00 0.00 98 1018.2
20260510130506 62 137 0.0 1.0 0.00 0.00 0.00 97 1018.2
20260510130016 62 136 0.0 0.0 0.00 0.00 0.00 97 1018.1
20260510124509 61 153 0.0 0.0 0.00 0.00 0.00 98 1017.8
20260510123020 61 153 0.0 2.0 0.00 0.00 0.00 97 1017.6
20260510122505 61 136 0.0 2.0 0.00 0.00 0.00 98 1017.5
20260510122008 61 132 0.0 2.0 0.00 0.00 0.00 97 1017.5
20260510121517 61 84 0.0 1.0 0.00 0.00 0.00 97 1017.5
20260510121005 61 115 0.0 0.0 0.00 0.00 0.00 98 1017.6
20260510120509 61 147 0.0 0.0 0.00 0.00 0.00 98 1017.6
20260510120018 61 147 0.0 0.0 0.00 0.00 0.00 98 1017.5
20260510115507 61 147 0.0 0.0 0.00 0.00 0.00 98 1017.3
20260510114518 60 147 0.0 3.0 0.00 0.00 0.00 98 1017.2
20260510114009 60 91 0.0 3.0 0.00 0.00 0.00 98 1017.2
20260510113017 60 88 0.0 0.0 0.00 0.00 0.00 98 1017.0
20260510111514 59 88 0.0 0.0 0.00 0.00 0.00 98 1016.7
20260510111007 59 88 0.0 0.0 0.00 0.00 0.00 98 1016.7
20260510110506 59 88 0.0 0.0 0.00 0.00 0.00 98 1016.8
20260510105507 59 88 0.0 0.0 0.00 0.00 0.00 97 1016.5
20260510105008 59 88 0.0 0.0 0.00 0.00 0.00 97 1016.5
20260510104510 58 88 0.0 0.0 0.00 0.00 0.00 97 1016.3
20260510104006 58 88 0.0 0.0 0.00 0.00 0.00 97 1016.2
20260510103506 58 88 0.0 0.0 0.00 0.00 0.00 97 1016.2
20260510103020 58 88 0.0 0.0 0.00 0.00 0.00 97 1016.1
20260510102504 58 88 0.0 0.0 0.00 0.00 0.00 97 1016.1
20260510102011 58 88 0.0 0.0 0.00 0.00 0.00 97 1016.1
20260510101003 58 146 0.0 0.0 0.00 0.00 0.00 97 1016.0
20260510100505 58 147 0.0 0.0 0.00 0.00 0.00 97 1016.1
20260510100021 57 147 0.0 0.0 0.00 0.00 0.00 97 1016.0
20260510095507 57 147 0.0 0.0 0.00 0.00 0.00 97 1015.9
20260510095003 57 147 0.0 0.0 0.00 0.00 0.00 97 1015.9
20260510094518 56 147 0.0 0.0 0.00 0.00 0.00 97 1015.9
20260510093504 56 147 0.0 0.0 0.00 0.00 0.00 97 1015.8
20260510093015 56 147 0.0 0.0 0.00 0.00 0.00 96 1015.8
20260510092506 56 147 0.0 0.0 0.00 0.00 0.00 96 1015.8
20260510090507 56 146 0.0 0.0 0.00 0.00 0.00 96 1015.9
20260510090022 57 147 0.0 0.0 0.00 0.00 0.00 96 1015.9
20260510085504 57 147 0.0 0.0 0.00 0.00 0.00 96 1015.8
20260510084525 57 146 0.0 0.0 0.00 0.00 0.00 96 1015.7
20260510084003 57 147 0.0 0.0 0.00 0.00 0.00 96 1015.6
20260510083510 57 146 0.0 0.0 0.00 0.00 0.00 96 1015.4
20260510082506 57 147 0.0 0.0 0.00 0.00 0.00 96 1015.3
20260510082004 57 147 0.0 0.0 0.00 0.00 0.00 96 1015.2
20260510081535 57 147 0.0 0.0 0.00 0.00 0.00 96 1015.2
20260510080504 57 147 0.0 0.0 0.00 0.00 0.00 96 1014.9
20260510080013 58 146 0.0 0.0 0.00 0.00 0.00 96 1014.9
20260510075508 58 147 0.0 0.0 0.00 0.00 0.00 96 1014.9
20260510075008 58 147 0.0 0.0 0.00 0.00 0.00 96 1014.8
20260510074511 58 146 0.0 0.0 0.00 0.00 0.00 96 1014.7
20260510074012 58 147 0.0 0.0 0.00 0.00 0.00 96 1014.7
20260510073513 58 147 0.0 0.0 0.00 0.00 0.00 96 1014.6
20260510073024 58 147 0.0 0.0 0.00 0.00 0.00 96 1014.7
20260510072508 58 147 0.0 0.0 0.00 0.00 0.00 96 1014.7
20260510072010 58 147 0.0 0.0 0.00 0.00 0.00 96 1014.7
20260510071523 58 147 0.0 0.0 0.00 0.00 0.00 96 1014.7
20260510071003 59 144 0.0 0.0 0.00 0.00 0.00 96 1014.7
20260510070506 59 144 0.0 0.0 0.00 0.00 0.00 96 1014.8
20260510070026 59 144 0.0 0.0 0.00 0.00 0.00 96 1014.7
20260510065507 59 144 0.0 0.0 0.00 0.00 0.00 96 1014.7
20260510064525 59 144 0.0 0.0 0.00 0.00 0.00 96 1014.6
20260510064008 59 144 0.0 0.0 0.00 0.00 0.00 96 1014.7
20260510063504 59 143 0.0 0.0 0.00 0.00 0.00 95 1014.7
20260510063025 59 143 0.0 0.0 0.00 0.00 0.00 95 1014.7
20260510062512 59 143 0.0 0.0 0.00 0.00 0.00 95 1014.8
20260510062015 60 143 0.0 0.0 0.00 0.00 0.00 95 1014.8
20260510061514 60 143 0.0 0.0 0.00 0.00 0.00 95 1014.9
20260510061008 60 143 0.0 0.0 0.00 0.00 0.00 95 1014.8
20260510060509 60 143 0.0 0.0 0.00 0.00 0.00 95 1014.9
20260510060035 60 143 0.0 0.0 0.00 0.00 0.00 95 1014.9
20260510055504 60 143 0.0 0.0 0.00 0.00 0.00 95 1014.9
20260510055007 60 143 0.0 0.0 0.00 0.00 0.00 95 1015.0
20260510054527 60 143 0.0 0.0 0.00 0.00 0.00 95 1014.9
20260510054009 60 143 0.0 0.0 0.00 0.00 0.00 95 1015.0
20260510053508 60 143 0.0 0.0 0.00 0.00 0.00 95 1015.0
20260510053037 60 143 0.0 0.0 0.00 0.00 0.00 95 1015.0
20260510052512 60 143 0.0 0.0 0.00 0.00 0.00 95 1015.0
20260510052012 61 143 0.0 0.0 0.00 0.00 0.00 94 1015.0
20260510051525 61 143 0.0 0.0 0.00 0.00 0.00 94 1014.9
20260510051008 61 143 0.0 0.0 0.00 0.00 0.00 94 1014.9
20260510050504 61 143 0.0 0.0 0.00 0.00 0.00 94 1014.9
20260510050022 61 143 0.0 0.0 0.00 0.00 0.00 94 1014.8
20260510045509 61 143 0.0 0.0 0.00 0.00 0.00 94 1014.8
20260510045011 61 143 0.0 0.0 0.00 0.00 0.00 93 1014.9
20260510044533 61 143 0.0 0.0 0.00 0.00 0.00 93 1014.9
20260510044009 61 143 0.0 0.0 0.00 0.00 0.00 93 1014.9
20260510043510 62 143 0.0 0.0 0.00 0.00 0.00 93 1015.0
20260510043013 62 143 0.0 0.0 0.00 0.00 0.00 93 1015.0
20260510042008 62 143 0.0 0.0 0.00 0.00 0.00 92 1015.0
20260510041525 62 143 0.0 0.0 0.00 0.00 0.00 92 1015.0
20260510041007 63 143 0.0 0.0 0.00 0.00 0.00 92 1015.1
20260510040514 63 143 0.0 0.0 0.00 0.00 0.00 92 1015.0
20260510040036 63 143 0.0 0.0 0.00 0.00 0.00 91 1015.1
20260510035513 63 143 0.0 0.0 0.00 0.00 0.00 91 1014.9
20260510035008 63 143 0.0 0.0 0.00 0.00 0.00 91 1015.0
20260510034525 64 143 0.0 0.0 0.00 0.00 0.00 90 1015.0
20260510034011 64 143 0.0 0.0 0.00 0.00 0.00 90 1015.0
20260510033506 64 143 0.0 0.0 0.00 0.00 0.00 89 1015.0
20260510033034 64 143 0.0 0.0 0.00 0.00 0.00 89 1015.1
20260510032510 65 143 0.0 0.0 0.00 0.00 0.00 88 1015.0
20260510032013 65 143 0.0 0.0 0.00 0.00 0.00 88 1015.0
20260510031518 65 143 0.0 0.0 0.00 0.00 0.00 87 1015.0
20260510031009 65 143 0.0 0.0 0.00 0.00 0.00 87 1014.9
20260510030515 66 143 0.0 0.0 0.00 0.00 0.00 87 1014.8
20260510030017 66 143 0.0 0.0 0.00 0.00 0.00 87 1014.8
20260510025510 66 130 0.0 0.0 0.00 0.00 0.00 87 1014.8
20260510025011 66 130 0.0 0.0 0.00 0.00 0.00 86 1014.6
20260510024527 66 130 0.0 0.0 0.00 0.00 0.00 85 1014.6
20260510024006 67 130 0.0 0.0 0.00 0.00 0.00 85 1014.6
20260510023511 67 130 0.0 0.0 0.00 0.00 0.00 85 1014.5
20260510023026 67 130 0.0 1.0 0.00 0.00 0.00 85 1014.5
20260510022513 67 130 0.0 1.0 0.00 0.00 0.00 84 1014.4
20260510022008 67 157 0.0 1.0 0.00 0.00 0.00 84 1014.4
20260510021526 67 157 0.0 1.0 0.00 0.00 0.00 83 1014.2
20260510021008 67 147 0.0 0.0 0.00 0.00 0.00 83 1014.2
20260510020027 68 147 0.0 0.0 0.00 0.00 0.00 81 1013.9
20260510015512 68 157 0.0 0.0 0.00 0.00 0.00 81 1013.8
20260510015015 69 157 0.0 0.0 0.00 0.00 0.00 81 1013.7
20260510014526 69 137 0.0 0.0 0.00 0.00 0.00 80 1013.6
20260510014008 69 113 0.0 1.0 0.00 0.00 0.00 80 1013.5
20260510013512 69 150 0.0 1.0 0.00 0.00 0.00 79 1013.5
20260510013016 69 141 0.0 1.0 0.00 0.00 0.00 79 1013.5
20260510012507 69 144 0.0 2.0 0.00 0.00 0.00 78 1013.3
20260510012010 70 136 0.0 3.0 0.00 0.00 0.00 78 1013.3
20260510011527 70 127 1.0 3.0 0.00 0.00 0.00 77 1013.2
20260510010507 70 147 0.0 2.0 0.00 0.00 0.00 76 1013.2
20260510010028 70 152 0.0 0.0 0.00 0.00 0.00 76 1013.1
20260510005507 70 141 0.0 1.0 0.00 0.00 0.00 75 1013.0
20260510005008 71 152 0.0 1.0 0.00 0.00 0.00 75 1013.0
20260510004523 71 139 0.0 1.0 0.00 0.00 0.00 74 1013.0
20260510004013 71 159 0.0 2.0 0.00 0.00 0.00 74 1012.9
20260510003507 71 159 0.0 3.0 0.00 0.00 0.00 73 1012.7
20260510002512 72 140 0.0 2.0 0.00 0.00 0.00 73 1012.5
20260510002005 72 129 0.0 2.0 0.00 0.00 0.00 72 1012.5
20260510001504 72 140 0.0 2.0 0.00 0.00 0.00 73 1012.5
20260510001004 72 143 0.0 2.0 0.00 0.00 0.00 73 1012.4
20260510000020 72 115 0.0 0.0 0.00 0.00 0.00 73 1012.4
20260509235504 72 109 0.0 0.0 0.00 0.00 0.00 72 1012.4
20260509235005 72 138 0.0 0.0 0.00 0.00 0.00 71 1012.3
20260509234529 72 138 0.0 0.0 0.00 0.00 0.00 70 1012.4
20260509233503 73 138 0.0 0.0 0.00 0.00 0.00 68 1012.1
20260509233015 73 138 0.0 0.0 0.00 0.00 0.00 68 1012.0
20260509232509 73 138 0.0 0.0 0.00 0.00 0.00 68 1012.2
20260509232004 73 138 0.0 0.0 0.00 0.00 0.00 67 1012.3
20260509231513 73 138 0.0 0.0 0.00 0.00 0.00 68 1012.3
20260509231006 73 138 0.0 0.0 0.00 0.00 0.00 67 1012.3